Weather Roundup
Issued by NWS Chicago, IL

Home | Current Version | Previous Version | Graphics & Text | Print | Product List | Glossary On
Versions: 1 2 3 4 5 6 7 8 9 10 11 12 13 14 15 16 17 18 19 20 21 22 23 24 25 26 27 28 29 30 31 32 33 34 35 36 37 38 39 40 41 42 43 44 45 46 47 48 49 50
000
NZUS59 KLOT 041712
HRRLOT

CHICAGO AREA WEATHER ROUNDUP
NATIONAL WEATHER SERVICE CHICAGO/ROMEOVILLE IL
1100 AM CST SUN DEC 04 2016

NOTE: "FAIR" INDICATES FEW OR NO CLOUDS BELOW 12,000 FEET WITH NO
SIGNIFICANT WEATHER AND/OR OBSTRUCTIONS TO VISIBILITY.

* THESE STATIONS ARE NOT UNDER NWS QUALITY CONTROL. THEY ALSO MAY NOT
  REPORT WEATHER SUCH AS PRECIPITATION OR FOG.

ILZ005-006-012>014-019>023-041800-
NORTHEAST ILLINOIS

CITY           SKY/WX    TMP DP  RH WIND       PRES   REMARKS
OHARE          SNOW      32  30  92 S5        30.05F VSB 1/2 WCI  27
MIDWAY         LGT SNOW  34  27  75 SE6       30.06F WCI  29
AURORA         SNOW      32  30  92 E8        30.05F VSB 1/4 WCI  25
LANSING*       LGT SNOW  33  30  89 E6        30.06F WCI  28
JOLIET*        LGT SNOW  33  32  97 E5        30.06F VSB 1   WCI  28
WAUKEGAN       SNOW      33  31  92 CALM      30.05F VSB 1/2
DUPAGE AIRPORT SNOW      31  28  89 E5        30.05F VSB 1/2 WCI  26
WHEELING       SNOW      31  29  92 CALM      30.07F VSB 1/2
KANKAKEE*      LGT SNOW  33  30  88 E6        30.05F WCI  28
MORRIS*        SNOW      32  31  94 E5        30.04F VSB 1/2 WCI  27
LEWIS AIRPORT* LGT SNOW  32  32 100 E5        30.05F VSB 3/4 WCI  27
NORTHERLY ISL    N/A     35  29  79 SE9         N/A  WCI  28
$$

WIZ051-052-058>065-066-070>072-041800-
SOUTHEAST WISCONSIN

CITY           SKY/WX    TMP DP  RH WIND       PRES   REMARKS
MILWAUKEE      FLURRIES  37  28  70 SE5       30.05F
KENOSHA*       LGT SNOW  33  29  85 SE3       30.05F VSB 3/4
RACINE*        CLOUDY    36  28  73 SE5       30.07F
BURLINGTON     LGT SNOW  31  30  96 CALM      30.05F VSB 1
WAUKESHA       LGT SNOW  28  27  93 SE6       30.06F VSB 1   WCI  22
WEST BEND      SNOW      30  30 100 SE5       30.04F VSB 1/2 WCI  25
$$

INZ001>003-010>013-019-020-041800-
NORTHWEST INDIANA

CITY           SKY/WX    TMP DP  RH WIND       PRES   REMARKS
GARY*          LGT SNOW  36  28  75 SE7       30.06F
MICHIGAN CITY* NOT AVBL
RENSSELAER*    NOT AVBL
VALPARAISO     LGT SNOW  35  29  78 E8        30.06F WCI  29
$$

LMZ740>746-041800-
SOUTHERN LAKE MICHIGAN

STATION/POSITION TIME  SKY/WX   TEMP WIND        PRES    VSBY
                                AIR  DIR/SP/G
                 (UTC)          (F)  (DEG/KT/KT) (MB)    (MI)
HARRISON CRIB    1640            36  130/ 10/ 12   N/A
BURNHAM HARBOR   1700            35  160/  9/ 10   N/A
CALUMET HARBOR   1636            34  130/  8/ 11 1017.4F
BURNS HARBOR     1640            34  100/  8/ 11 1018.3F
MICHIGAN CITY    NOT AVBL
$$

ABBREVIATIONS USED IN REMARKS
   TC - TEMPERATURE IN CELSIUS
  WCI - WIND CHILL INDEX
   HX - HEAT INDEX
  VSB - VISIBILITY
$$




USA.gov is the U.S. government's official web portal to all federal, state and local government web resources and services.